Regional Weather Roundup
Issued by NWS

Home | Current Version | Previous Version | Text Only | Print | Product List | Glossary Off
Versions: 1 2 3 4 5 6 7 8 9 10 11 12 13 14 15 16 17 18 19 20 21 22 23 24 25 26 27 28 29 30 31 32 33 34 35 36 37 38 39 40 41 42 43 44 45 46 47 48 49 50

176
ASUS45 KBOU 270707
RWRCO

WEATHER ROUNDUP FOR COLORADO
NATIONAL WEATHER SERVICE DENVER/BOULDER CO
100 AM MDT SAT AUG 27 2016

NOTE: "FAIR" INDICATES FEW OR NO CLOUDS BELOW 12000 FEET WITH NO
SIGNIFICANT WEATHER AND/OR OBSTRUCTIONS TO VISIBILITY.

COZ001>005-013-030-031-270800-
...NORTHWEST COLORADO...

CITY           SKY/WX    TMP DP  RH WIND       PRES   REMARKS
CRAIG          FAIR      53  45  74 CALM      30.24R
HAYDEN         FAIR      50  39  66 E7        30.24S
MEEKER         FAIR      53  45  74 CALM      30.25R
MOUNT WERNER   NOT AVBL
STEAMBOAT SPGS FAIR      49  41  73 NW5       30.26R
WALDEN         FAIR      41  32  70 E5        30.29S
$$

COZ006>008-011-270800-
...WEST CENTRAL VALLEYS...

CITY           SKY/WX    TMP DP  RH WIND       PRES   REMARKS
GRAND JUNCTION FAIR      60  47  61 SE9       30.16S
MONTROSE       FAIR      59  45  59 SE9       30.23S
EAGLE          CLOUDY    52  48  87 SW10      30.33R
RIFLE          MOCLDY    53  52  96 SW5       30.25F
DELTA          FAIR      63  43  48 NE7       30.20R
NUCLA          FAIR     N/A N/A N/A SE7       30.23S
$$

COZ017>023-064>068-270800-
...SOUTHWEST COLORADO...

CITY           SKY/WX    TMP DP  RH WIND       PRES   REMARKS
DURANGO        FAIR      53  44  71 CALM      30.24S
CORTEZ         FAIR      57  51  80 E5        30.21R
PAGOSA SPRINGS FAIR      46  44  95 CALM      30.31S
TELLURIDE      MOCLDY    46  43  88 SE6       30.41S
WOLF CREEK PAS FAIR      37  36  93 SW8       30.56S
$$

COZ009-010-012-014-032>034-037-058>063-270800-
...CENTRAL COLORADO...

CITY           SKY/WX    TMP DP  RH WIND       PRES   REMARKS
ASPEN          LGT RAIN  48  44  86 N5        30.37S
BUENA VISTA    FAIR      47  36  65 NW7       30.30R
COPPER MTN     FAIR      41  32  70 NW20G29   30.50F
BERTHOUD PASS  FAIR      34  23  64 W12G28    30.51F WCI  25
COTTONWOOD PAS FAIR      50  28  43 NW5       30.40S
GUNNISON       FAIR      45  36  70 NE3       30.35R
KREMMLING      FAIR      46  41  81 CALM      30.30F
LEADVILLE      FAIR      42  31  64 NW5       30.41R
MONARCH PASS   FAIR      37  30  75 SW15      30.64R
SALIDA         FAIR      55  38  53 NW6       30.35R
SUNLIGHT       CLOUDY    39  37  93 S3        30.51F
WILKERSON PASS FAIR      41  32  70 SW6       30.50S
$$

COZ069>075-270800-
...SAN LUIS VALLEY/SANGRE DE CRISTO MOUNTAINS...

CITY           SKY/WX    TMP DP  RH WIND       PRES   REMARKS
ALAMOSA        FAIR      43  39  86 W6        30.29R
LA VETA PASS   FAIR      45  34  65 S8        30.41F
SAGUACHE       CLOUDY    55  37  50 N8        30.31R
$$

COZ035-036-038>040-270800-
...NORTHERN COLORADO FRONT RANGE...

CITY           SKY/WX    TMP DP  RH WIND       PRES   REMARKS
DENVER INTL AP FAIR      56  49  77 CALM      30.13R
DMNS CITY PARK   N/A     57  49  75 E2        30.13S
AURORA         PTCLDY    55  47  74 S3        30.15R
FRONT RANGE AP NOT AVBL
ERIE MUNI ARPT FAIR      53  47  82 SE3       30.11F
BOULDER MUN AP FAIR      57  46  67 CALM      30.11F
CENTENNIAL     FAIR      57  43  59 CALM      30.15S
BROOMFIELD     FAIR      57  46  67 CALM      30.14F
FORT COLLINS   FAIR      52  46  82 CALM      30.11F
LONGMONT       FAIR      55  48  79 CALM      30.12F
$$

COZ041-046-047-076>085-087-088-270800-
...PIKES PEAK/PALMER DIVIDE AND SOUTHERN FOOTHILLS...

CITY           SKY/WX    TMP DP  RH WIND       PRES   REMARKS
COLO. SPRINGS  MOCLDY    60  45  57 E5        30.20R
A. F. ACADEMY  FAIR      48  45  87 N5        30.20S
SCHRIEVER AFB  NOT AVBL
ELLICOTT       NOT AVBL
FALCON         FAIR      51  45  78 W5        30.24R
FORT CARSON    MOCLDY    55  46  72 NW6       30.17R
LIMON          FAIR      46  46 100 N3        30.14F
MONUMENT HILL  FAIR      48  45  87 S7        30.24S
TRINIDAD       FAIR      58  49  72 W12       30.14F
$$

COZ042>045-048>051-090-091-270800-
...NORTHEAST COLORADO...

CITY           SKY/WX    TMP DP  RH WIND       PRES   REMARKS
GREELEY ARPT   FAIR      52  48  87 CALM      30.10F
AKRON          FAIR      55  52  89 S9        30.09F
BURLINGTON     FAIR      52  48  86 E5        30.09S
WRAY           FAIR     N/A N/A N/A CALM      30.08F
STERLING       FAIR      52  50  93 N3        30.08S
HOLYOKE        FOG       55  54  94 CALM      30.09S VSB 1/4
FORT MORGAN    FAIR      50  48  91 N5        30.11S
$$

COZ086-089-092>099-270800-
...SOUTHEAST COLORADO...

CITY           SKY/WX    TMP DP  RH WIND       PRES   REMARKS
PUEBLO         FAIR      61  49  64 CALM      30.09S
LA JUNTA       FAIR      62  54  74 SE6       30.06F
LAMAR          FAIR      57  53  86 E7        30.03F
SPRINGFIELD      N/A     59  56  89 SW9       30.09S
$$




USA.gov is the U.S. government's official web portal to all federal, state and local government web resources and services.